Weather Roundup
Issued by NWS Springfield, MO

Home | Current Version | Previous Version | Text Only | Print | Product List | Glossary Off
Versions: 1 2 3 4 5 6 7 8 9 10 11 12 13 14 15 16 17 18 19 20 21 22 23 24 25 26 27 28 29 30 31 32 33 34 35 36 37 38 39 40 41 42 43 44 45 46 47 48 49 50

000
NZUS99 KSGF 310259
HRRSGF

HOURLY WEATHER
NATIONAL WEATHER SERVICE SPRINGFIELD MO
1000 PM CDT SAT AUG 30 2014

......SGF CWA......

CITY           SKY/WX    TMP DP  RH WIND       PRES   REMARKS
SPRINGFIELD    PTCLDY    70  66  87 S9        29.95R
JOPLIN         MOCLDY    79  66  64 S8        29.94R
WEST PLAINS    PTCLDY    74  69  85 S5        30.00R
ROLLA          CLOUDY    70  67  90 S8        29.94R
OSAGE BEACH    MOCLDY    73  66  78 S3        29.93S

......SURROUNDING SGF CWA......

CITY           SKY/WX    TMP DP  RH WIND       PRES   REMARKS
CHANUTE        CLEAR     74  63  68 CALM      29.90R
PARSONS        CLEAR     80  64  58 S7        29.91R
COFFEYVILLE    CLEAR     78  68  71 S6        29.90R
EMPORIA        CLEAR     74  60  61 SE7       29.89S
HARRISON AR    PTCLDY    73  70  90 SE8       29.99R
NEAR YELLVILLE PTCLDY    72  68  88 CALM      29.96F

......KANSAS AND MISSOURI......

CITY           SKY/WX    TMP DP  RH WIND       PRES   REMARKS
KANSAS CTY INT CLEAR     75  68  78 SE8       29.91R
DOWNTOWN KC    CLEAR     80  67  64 E6        29.89S
COLUMBIA       MOCLDY    73  69  87 SE8       29.93R
SEDALIA        CLEAR     77  69  76 SW5       29.93R
ST JOSEPH      CLEAR     69  67  93 CALM      29.89S
ST LOUIS       MOCLDY    78  70  76 S8        29.94R
SPIRIT OF STL  PTCLDY    76  71  85 S5        29.91S
KIRKSVILLE     CLEAR     69  67  93 CALM      29.93R
WICHITA        CLEAR     76  61  59 S7        29.89R
TOPEKA         PTCLDY    75  68  78 E6        29.88S
OLATHE         CLEAR     76  67  73 SE5       29.91R

......TENNESSEE......

CITY           SKY/WX    TMP DP  RH WIND       PRES   REMARKS
MEMPHIS        CLOUDY    74  70  87 S10       30.01R
NASHVILLE      LGT RAIN  72  70  93 S8        30.10R

......ARKANSAS.......

CITY           SKY/WX    TMP DP  RH WIND       PRES   REMARKS
FAYETTEVILLE   CLEAR     70  70 100 CALM      29.98R
FT SMITH       MOCLDY    80  71  74 SE5       29.93R
LITTLE ROCK    MOCLDY    76  71  85 SE9       29.97R

......OKLAHOMA.......

CITY           SKY/WX    TMP DP  RH WIND       PRES   REMARKS
TULSA          CLEAR     80  70  71 S7        29.90R
PONCA CITY     CLEAR     81  63  54 SE12      29.89R
MCALESTER      PTCLDY    73  70  90 SW5       29.93R
OKLAHOMA CITY  CLEAR     80  64  58 SE9       29.91R

......IOWA............

CITY           SKY/WX    TMP DP  RH WIND       PRES   REMARKS
DES MOINES     CLEAR     72  66  81 SE3       29.89R
QUAD CITIES    CLEAR     71  68  90 NW3       29.90R

......ILLINOIS........

CITY           SKY/WX    TMP DP  RH WIND       PRES   REMARKS
QUINCY         PTCLDY    76  72  87 S6        29.92R
CHICAGO        PTCLDY    74  64  71 W5        29.90R



USA.gov is the U.S. government's official web portal to all federal, state and local government web resources and services.